Date String (YYYY-MM-DD hh:mm:ss) UTC,Instrument flags,Ambient pressure (hPa),Sample flow (lpm),Bypass flow (lpm),Sample temperature (°C),Ambient temperature (°C),ASC tube jacket temperature (°C),LED temperature (°C),Box temperature (°C),Sample RH (%),Span deviation,Mass concentration (μg/m³),Mass concentration (μg/m³),Mass concentration (μg/m³)
DateTimeUTC,F1_M11,P_M11,Q1_M11,Q2_M11,T1_M11,T2_M11,T3_M11,T4_M11,T5_M11,U1_M11,ZSPAN_M11,X2_M11,X0_M11,X1_M11
2021-10-25 05:00:00,,0824.4,5.00,0.00,29.8,28.9,00.0,38.9,31.5,11.7,0000.0,0004.27,0014.55,0002.67
2021-10-25 05:01:00,,0824.4,5.00,0.00,29.8,28.9,00.0,38.9,31.5,11.7,0000.0,0004.26,0014.44,0002.65
2021-10-25 05:02:00,,0824.3,5.00,0.00,29.8,28.9,00.0,38.9,31.5,11.7,0000.0,0004.28,0015.01,0002.64
2021-10-25 05:03:00,,0824.2,4.99,0.00,29.8,28.9,00.0,38.9,31.5,11.7,0000.0,0004.24,0015.65,0002.63
2021-10-25 05:04:00,,0824.2,5.00,0.00,29.8,28.9,00.0,38.9,31.5,11.7,0000.0,0004.21,0014.68,0002.63
2021-10-25 05:05:00,,0824.2,5.00,0.00,29.8,28.9,00.0,38.9,31.5,11.6,0000.0,0004.23,0014.49,0002.61
2021-10-25 05:06:00,,0824.3,5.01,0.00,29.8,28.9,00.0,38.9,31.5,11.6,0000.0,0004.20,0014.60,0002.60
2021-10-25 05:07:00,,0824.2,4.99,0.00,29.8,28.9,00.0,38.9,31.6,11.6,0000.0,0004.22,0014.34,0002.62
2021-10-25 05:08:00,,0824.2,5.00,0.00,29.8,28.9,00.0,38.9,31.6,11.6,0000.0,0004.28,0014.73,0002.63
2021-10-25 05:09:00,,0824.3,5.00,0.00,29.8,29.0,00.0,38.9,31.6,11.6,0000.0,0004.30,0014.49,0002.63
2021-10-25 05:10:00,,0824.2,4.99,0.00,29.8,29.0,00.0,38.9,31.6,11.6,0000.0,0004.30,0014.31,0002.63
2021-10-25 05:11:00,,0824.3,5.02,0.00,29.8,29.0,00.0,38.9,31.6,11.6,0000.0,0004.32,0014.78,0002.64
2021-10-25 05:12:00,,0824.3,4.99,0.00,29.8,29.0,00.0,38.9,31.6,11.6,0000.0,0004.28,0014.70,0002.62
2021-10-25 05:13:00,,0824.3,5.00,0.00,29.8,28.9,00.0,38.9,31.6,11.6,0000.0,0004.22,0014.04,0002.60
2021-10-25 05:14:00,,0824.3,5.00,0.00,29.8,28.9,00.0,38.9,31.6,11.6,0000.0,0004.25,0013.37,0002.60
2021-10-25 05:15:00,,0824.3,5.00,0.00,29.8,28.9,00.0,38.9,31.5,11.6,0000.0,0004.25,0013.43,0002.59
2021-10-25 05:16:00,,0824.3,4.99,0.00,29.8,28.9,00.0,38.9,31.6,11.6,0000.0,0004.28,0013.20,0002.59
2021-10-25 05:17:00,,0824.3,5.01,0.00,29.8,28.9,00.0,38.9,31.5,11.6,0000.0,0004.32,0013.56,0002.58
2021-10-25 05:18:00,,0824.3,5.00,0.00,29.8,28.9,00.0,38.9,31.5,11.6,0000.0,0004.28,0014.03,0002.56
2021-10-25 05:19:00,,0824.3,5.00,0.00,29.8,28.9,00.0,38.9,31.5,11.6,0000.0,0004.21,0014.05,0002.55
2021-10-25 05:20:00,,0824.2,5.00,0.00,29.8,28.9,00.0,38.9,31.5,11.6,0000.0,0004.22,0014.23,0002.54
2021-10-25 05:21:00,,0824.2,5.00,0.00,29.8,28.9,00.0,38.9,31.5,11.6,0000.0,0004.25,0014.06,0002.54
2021-10-25 05:22:00,,0824.3,5.01,0.00,29.8,28.9,00.0,38.9,31.6,11.6,0000.0,0004.20,0013.64,0002.53
2021-10-25 05:23:00,,0824.3,4.99,0.00,29.8,28.9,00.0,38.9,31.5,11.7,0000.0,0004.24,0014.43,0002.53
2021-10-25 05:24:00,,0824.3,5.01,0.00,29.8,28.9,00.0,38.9,31.5,11.7,0000.0,0004.30,0015.25,0002.53
2021-10-25 05:25:00,,0824.2,5.00,0.00,29.8,28.9,00.0,38.9,31.6,11.6,0000.0,0004.29,0016.00,0002.52
2021-10-25 05:26:00,,0824.2,5.00,0.00,29.8,28.9,00.0,38.9,31.5,11.7,0000.0,0004.32,0016.47,0002.51
2021-10-25 05:27:00,,0824.2,5.00,0.00,29.8,28.9,00.0,38.9,31.5,11.6,0000.0,0004.37,0017.50,0002.50
2021-10-25 05:28:00,,0824.2,5.00,0.00,29.8,28.9,00.0,38.9,31.5,11.5,0000.0,0004.39,0017.84,0002.48
2021-10-25 05:29:00,,0824.2,5.00,0.00,29.8,28.9,00.0,38.9,31.5,11.6,0000.0,0004.42,0017.96,0002.47
2021-10-25 05:30:00,,0824.5,5.01,0.00,29.8,28.9,00.0,38.9,31.5,11.6,0000.0,0004.47,0017.33,0002.45
2021-10-25 05:31:00,,0824.2,4.99,0.00,29.8,28.9,00.0,38.9,31.5,11.5,0000.0,0004.50,0018.53,0002.43
2021-10-25 05:32:00,,0824.2,4.99,0.00,29.8,28.9,00.0,38.9,31.5,11.5,0000.0,0004.49,0019.38,0002.39
2021-10-25 05:33:00,,0824.3,5.00,0.00,29.8,28.9,00.0,38.9,31.5,11.4,0000.0,0004.51,0019.97,0002.37
2021-10-25 05:34:00,,0824.2,5.00,0.00,29.8,28.9,00.0,38.9,31.5,11.4,0000.0,0004.52,0019.56,0002.33
2021-10-25 05:35:00,,0824.2,5.01,0.00,29.8,28.9,00.0,38.9,31.5,11.4,0000.0,0004.48,0019.89,0002.28
2021-10-25 05:36:00,,0824.2,4.98,0.00,29.8,28.9,00.0,38.9,31.5,11.3,0000.0,0004.45,0019.05,0002.26
2021-10-25 05:37:00,,0824.3,5.01,0.00,29.8,28.9,00.0,38.9,31.5,11.3,0000.0,0004.41,0018.38,0002.23
2021-10-25 05:38:00,,0824.3,5.01,0.00,29.8,28.9,00.0,38.9,31.5,11.3,0000.0,0004.28,0017.91,0002.18
2021-10-25 05:39:00,,0824.2,4.99,0.00,29.8,28.9,00.0,38.9,31.5,11.3,0000.0,0004.17,0016.77,0002.14
2021-10-25 05:40:00,,0824.1,5.00,0.00,29.8,28.9,00.0,38.9,31.5,11.3,0000.0,0004.13,0016.41,0002.10
2021-10-25 05:41:00,,0824.1,5.00,0.00,29.8,28.9,00.0,38.9,31.5,11.3,0000.0,0004.06,0016.76,0002.07
2021-10-25 05:42:00,,0824.0,4.99,0.00,29.8,28.9,00.0,38.9,31.5,11.3,0000.0,0004.03,0015.42,0002.03
2021-10-25 05:43:00,,0824.0,5.00,0.00,29.8,28.9,00.0,38.9,31.5,11.3,0000.0,0003.99,0014.53,0002.01
2021-10-25 05:44:00,,0824.0,5.01,0.00,29.8,28.9,00.0,38.9,31.5,11.3,0000.0,0004.00,0014.26,0002.00
2021-10-25 05:45:00,,0824.0,5.00,0.00,29.8,28.9,00.0,38.9,31.5,11.3,0000.0,0004.02,0014.88,0002.02
2021-10-25 05:46:00,,0824.0,5.00,0.00,29.8,28.9,00.0,38.9,31.5,11.4,0000.0,0004.03,0014.21,0002.02
2021-10-25 05:47:00,,0824.0,5.00,0.00,29.8,28.9,00.0,38.9,31.5,11.4,0000.0,0004.03,0015.20,0002.02
2021-10-25 05:48:00,,0824.0,5.00,0.00,29.8,28.8,00.0,38.8,31.5,11.4,0000.0,0004.08,0015.75,0002.03
2021-10-25 05:49:00,,0824.0,4.99,0.00,29.8,28.8,00.0,38.8,31.4,11.4,0000.0,0004.13,0014.97,0002.05
2021-10-25 05:50:00,,0824.0,5.00,0.00,29.8,28.8,00.0,38.8,31.5,11.4,0000.0,0004.15,0015.15,0002.07
2021-10-25 05:51:00,,0824.0,5.00,0.00,29.8,28.8,00.0,38.8,31.5,11.4,0000.0,0004.14,0016.13,0002.09
2021-10-25 05:52:00,,0824.0,5.00,0.00,29.7,28.8,00.0,38.8,31.5,11.4,0000.0,0004.13,0016.94,0002.09
2021-10-25 05:53:00,,0824.1,4.99,0.00,29.7,28.8,00.0,38.8,31.5,11.4,0000.0,0004.12,0016.85,0002.10
2021-10-25 05:54:00,,0824.1,5.01,0.00,29.7,28.8,00.0,38.8,31.5,11.4,0000.0,0004.16,0017.25,0002.11
2021-10-25 05:55:00,,0824.1,5.00,0.00,29.7,28.8,00.0,38.8,31.4,11.5,0000.0,0004.14,0017.39,0002.11
2021-10-25 05:56:00,,0824.0,4.99,0.00,29.7,28.7,00.0,38.8,31.4,11.5,0000.0,0004.12,0016.72,0002.11
2021-10-25 05:57:00,,0824.0,5.01,0.00,29.7,28.7,00.0,38.8,31.4,11.5,0000.0,0004.09,0016.60,0002.10
2021-10-25 05:58:00,,0824.0,5.00,0.00,29.7,28.8,00.0,38.8,31.4,11.5,0000.0,0004.09,0017.26,0002.10
2021-10-25 05:59:00,,0824.0,4.99,0.00,29.7,28.7,00.0,38.8,31.4,11.5,0000.0,0004.03,0017.91,0002.10
